GW3756 Weather Reports


Display with metric or nautical units.
time (UTC)temp
F
wind
direction
speed
MPH
gust
MPH
rain 1hr
in
rain 24hr
in
rain mn
in
humidity
%
barometer
mb
20260509023537 51 261 2.0 6.0 0.00 0.01 0.01 82 1006.8
20260509022517 52 180 2.0 8.0 0.00 0.01 0.01 81 1006.7
20260509021536 52 172 2.0 7.0 0.00 0.01 0.01 80 1006.9
20260509020516 53 201 2.0 6.0 0.00 0.01 0.01 79 1006.9
20260509015516 53 178 2.0 7.0 0.00 0.01 0.01 78 1006.7
20260509014535 54 222 2.0 8.0 0.00 0.01 0.01 76 1006.8
20260509013517 54 159 3.0 9.0 0.00 0.01 0.01 75 1006.8
20260509012610 55 149 3.0 9.0 0.00 0.01 0.01 74 1006.5
20260509011536 56 170 2.0 6.0 0.00 0.01 0.01 73 1006.4
20260509010516 56 207 2.0 6.0 0.00 0.01 0.01 72 1006.3
20260509005536 56 248 2.0 7.0 0.00 0.01 0.01 71 1006.2
20260509004516 57 218 2.0 7.0 0.00 0.01 0.01 69 1006.2
20260509003517 57 228 2.0 6.0 0.00 0.01 0.01 67 1006.0
20260509002533 58 202 3.0 8.0 0.00 0.01 0.01 65 1006.0
20260509001536 59 209 4.0 9.0 0.00 0.01 0.01 62 1006.0
20260509000516 59 225 2.0 7.0 0.00 0.01 0.01 60 1005.9
20260508235516 59 254 1.0 6.0 0.00 0.01 0.01 60 1005.9
20260508234518 59 241 3.0 8.0 0.00 0.01 0.01 58 1005.8
20260508233515 60 210 3.0 9.0 0.00 0.01 0.01 55 1006.0
20260508232517 60 194 3.0 9.0 0.00 0.01 0.01 50 1006.0
20260508231517 61 204 3.0 7.0 0.00 0.01 0.01 49 1006.0
20260508230516 61 235 2.0 7.0 0.00 0.01 0.01 48 1006.0
20260508225543 61 190 4.0 9.0 0.00 0.01 0.01 46 1006.0
20260508224515 62 213 3.0 8.0 0.00 0.01 0.01 44 1005.9
20260508223535 62 215 3.0 9.0 0.00 0.01 0.01 44 1005.9
20260508222517 62 215 3.0 9.0 0.00 0.01 0.01 42 1006.1
20260508221517 63 213 2.0 11.0 0.00 0.01 0.01 40 1006.1
20260508220533 62 238 3.0 7.0 0.00 0.01 0.01 40 1006.1
20260508215516 63 227 4.0 9.0 0.00 0.01 0.01 39 1006.2
20260508214515 65 232 3.0 8.0 0.00 0.01 0.01 34 1006.1
20260508213535 64 242 2.0 8.0 0.00 0.01 0.01 34 1006.1
20260508212531 64 235 5.0 14.0 0.00 0.01 0.01 32 1006.2
20260508211516 64 251 3.0 8.0 0.00 0.01 0.01 33 1006.2
20260508210516 64 229 3.0 9.0 0.00 0.01 0.01 33 1006.3
20260508205516 64 255 3.0 9.0 0.00 0.01 0.01 34 1006.5
20260508204536 64 235 2.0 8.0 0.00 0.01 0.01 33 1006.5
20260508203515 64 216 3.0 8.0 0.00 0.01 0.01 33 1006.7
20260508202515 64 258 3.0 7.0 0.00 0.01 0.01 32 1006.7
20260508201557 64 236 4.0 10.0 0.00 0.01 0.01 32 1007.0
20260508200537 61 206 2.0 7.0 0.00 0.01 0.01 36 1007.2
20260508195522 62 220 3.0 11.0 0.00 0.01 0.01 35 1007.3
20260508194517 63 270 2.0 6.0 0.00 0.01 0.01 33 1007.4
20260508193516 61 229 2.0 6.0 0.00 0.01 0.01 34 1007.5
20260508192516 60 284 1.0 3.0 0.00 0.01 0.01 37 1007.6
20260508191516 59 113 2.0 7.0 0.00 0.01 0.01 37 1007.8
20260508190515 58 86 3.0 7.0 0.00 0.01 0.01 40 1007.9
20260508185532 60 13 2.0 4.0 0.00 0.01 0.01 38 1008.0
20260508184517 60 80 1.0 7.0 0.00 0.01 0.01 37 1008.1
20260508183536 59 359 2.0 7.0 0.00 0.01 0.01 39 1008.2
20260508182525 61 350 3.0 11.0 0.00 0.01 0.01 32 1008.3
20260508181516 63 258 2.0 7.0 0.00 0.01 0.01 29 1008.5
20260508180516 63 295 1.0 3.0 0.00 0.01 0.01 30 1008.6
20260508175535 62 197 4.0 11.0 0.00 0.01 0.01 30 1008.6
20260508174515 60 321 2.0 6.0 0.00 0.01 0.01 32 1009.0
20260508173522 61 260 2.0 7.0 0.00 0.01 0.01 29 1009.1
20260508172536 59 301 1.0 6.0 0.00 0.01 0.01 36 1009.3
20260508171517 60 63 1.0 4.0 0.00 0.01 0.01 36 1009.3
20260508170516 58 8 1.0 4.0 0.00 0.01 0.01 41 1009.5
20260508165516 59 352 3.0 10.0 0.00 0.01 0.01 42 1009.7
20260508164515 58 324 1.0 3.0 0.00 0.01 0.01 38 1009.8
20260508163537 57 345 2.0 7.0 0.00 0.01 0.01 48 1009.9
20260508162517 60 331 1.0 4.0 0.00 0.01 0.01 31 1009.9
20260508161537 59 282 2.0 8.0 0.00 0.01 0.01 31 1009.9
20260508160516 58 358 2.0 6.0 0.00 0.01 0.01 32 1010.0
20260508155516 58 306 2.0 6.0 0.00 0.01 0.01 33 1010.2
20260508154515 57 276 1.0 6.0 0.00 0.01 0.01 34 1010.1
20260508153517 58 263 1.0 3.0 0.00 0.01 0.01 35 1010.2
20260508152557 58 271 1.0 6.0 0.00 0.01 0.01 34 1010.4
20260508151517 58 305 1.0 3.0 0.00 0.01 0.01 39 1010.4
20260508150516 56 235 1.0 6.0 0.00 0.01 0.01 38 1010.4
20260508145556 56 218 2.0 7.0 0.00 0.01 0.01 42 1010.5
20260508144518 56 320 0.0 2.0 0.00 0.01 0.01 42 1010.6
20260508143516 55 278 1.0 4.0 0.00 0.01 0.01 43 1010.6
20260508142515 55 303 1.0 3.0 0.00 0.01 0.01 45 1010.7
20260508141517 54 303 1.0 4.0 0.00 0.01 0.01 46 1010.8
20260508140526 54 290 1.0 2.0 0.00 0.01 0.01 48 1010.9
20260508135517 53 292 1.0 4.0 0.00 0.01 0.01 49 1010.8
20260508134516 52 228 1.0 4.0 0.00 0.01 0.01 51 1010.9
20260508133516 52 359 0.0 2.0 0.00 0.01 0.01 54 1010.8
20260508132555 49 216 3.0 7.0 0.00 0.01 0.01 58 1011.0
20260508131515 49 289 1.0 2.0 0.00 0.01 0.01 61 1010.9
20260508130515 49 253 1.0 3.0 0.00 0.01 0.01 65 1010.8
20260508125517 48 294 2.0 4.0 0.00 0.01 0.01 65 1010.8
20260508124557 47 298 0.0 2.0 0.00 0.01 0.01 70 1010.8
20260508123516 46 240 2.0 4.0 0.00 0.01 0.01 74 1010.6
20260508122516 46 260 1.0 2.0 0.00 0.01 0.01 75 1010.5
20260508121531 45 275 0.0 2.0 0.00 0.01 0.01 77 1010.5
20260508120516 44 277 0.0 2.0 0.00 0.01 0.01 79 1010.5
20260508115515 43 0.0 0.0 0.00 0.01 0.01 81 1010.3
20260508114535 42 0.0 0.0 0.00 0.01 0.01 83 1010.3
20260508113517 41 0.0 0.0 0.00 0.01 0.01 85 1010.3
20260508112516 40 0.0 0.0 0.00 0.01 0.01 89 1010.2
20260508111516 38 0.0 0.0 0.00 0.01 0.01 95 1010.1
20260508110530 37 0.0 0.0 0.00 0.01 0.01 95 1010.2
20260508105531 37 0.0 0.0 0.00 0.01 0.01 95 1010.1
20260508104516 37 0.0 0.0 0.00 0.01 0.01 95 1010.1
20260508103515 37 0.0 0.0 0.00 0.01 0.01 95 1010.1
20260508102517 37 0.0 0.0 0.00 0.01 0.01 95 1010.1
20260508101530 37 0.0 0.0 0.00 0.01 0.01 95 1010.1
20260508100527 37 0.0 0.0 0.00 0.01 0.01 95 1010.1
20260508095516 37 0.0 0.0 0.00 0.01 0.01 95 1010.2
20260508094516 38 0.0 0.0 0.00 0.01 0.01 94 1010.2
20260508093532 38 0.0 0.0 0.00 0.01 0.01 94 1010.2
20260508092516 38 0.0 0.0 0.00 0.01 0.01 94 1010.3
20260508091535 38 0.0 0.0 0.00 0.01 0.01 93 1010.3
20260508090517 39 0.0 0.0 0.01 0.01 0.01 92 1010.3
20260508085517 40 0.0 0.0 0.01 0.01 0.01 91 1010.3
20260508084516 41 0.0 0.0 0.01 0.01 0.01 89 1010.2
20260508083516 42 0.0 0.0 0.01 0.01 0.01 87 1010.2
20260508082515 42 247 1.0 3.0 0.01 0.01 0.01 87 1010.1
20260508081517 42 225 1.0 4.0 0.01 0.01 0.01 88 1010.3
20260508080517 41 0.0 0.0 0.00 0.00 0.00 89 1010.2
20260508075517 41 0.0 0.0 0.00 0.00 0.00 89 1010.1
20260508074516 41 0.0 0.0 0.00 0.00 0.00 88 1010.2
20260508073536 42 0.0 0.0 0.00 0.00 0.00 89 1010.4
20260508072515 42 0.0 0.0 0.00 0.00 0.00 89 1010.3
20260508071517 42 0.0 0.0 0.00 0.00 0.00 89 1010.2
20260508070517 42 331 0.0 1.0 0.00 0.00 0.00 88 1010.5
20260508065537 42 0.0 0.0 0.00 0.00 0.00 88 1010.7
20260508064516 42 0.0 0.0 0.00 0.00 0.00 86 1010.6
20260508063516 42 0.0 0.0 0.00 0.00 0.00 86 1010.7
20260508062516 42 0.0 0.0 0.00 0.00 0.00 83 1010.7
20260508061516 42 0.0 0.0 0.00 0.00 0.00 82 1010.8
20260508060556 42 0.0 0.0 0.00 0.00 0.00 82 1010.9
20260508055515 42 0.0 0.0 0.00 0.00 0.00 82 1011.1
20260508054515 42 0.0 0.0 0.00 0.00 0.00 82 1011.1
20260508053517 42 0.0 0.0 0.00 0.00 0.00 81 1011.1
20260508052516 42 0.0 0.0 0.00 0.00 0.00 81 1011.2
20260508051516 42 0.0 0.0 0.00 0.00 0.00 81 1011.1
20260508050541 42 0.0 0.0 0.00 0.00 0.00 82 1011.0
20260508045545 42 0.0 0.0 0.00 0.00 0.00 82 1010.9
20260508044517 42 0.0 0.0 0.00 0.00 0.00 83 1010.8
20260508043517 43 0.0 0.0 0.00 0.00 0.00 82 1010.7
20260508042525 43 0.0 0.0 0.00 0.00 0.00 79 1010.8
20260508041516 44 0.0 0.0 0.00 0.00 0.00 79 1010.9
20260508040516 44 0.0 0.0 0.00 0.00 0.00 77 1010.8
20260508035656 44 0.0 0.0 0.00 0.00 0.00 77 1010.9
20260508034515 44 0.0 0.0 0.00 0.00 0.00 77 1010.9
20260508033519 43 0.0 0.0 0.00 0.00 0.00 78 1010.9
20260508032517 43 0.0 0.0 0.00 0.00 0.00 79 1010.8
20260508031533 42 0.0 0.0 0.00 0.00 0.00 80 1010.6
20260508030536 42 335 0.0 1.0 0.00 0.00 0.00 82 1010.8
20260508025539 42 0.0 0.0 0.00 0.00 0.00 83 1010.9
20260508024515 43 336 0.0 2.0 0.00 0.00 0.00 82 1011.0